Regional Weather Roundup
Issued by NWS

Home | Current Version | Previous Version | Text Only | Print | Product List | Glossary On
Versions: 1 2 3 4 5 6 7 8 9 10 11 12 13 14 15 16 17 18 19 20 21 22 23 24 25 26 27 28 29 30 31 32 33 34 35 36 37 38 39 40 41 42 43 44 45 46 47 48 49 50
000
ASUS44 KOUN 231410
RWROK

WEATHER ROUNDUP FOR OKLAHOMA
NATIONAL WEATHER SERVICE NORMAN OK
900 AM CDT WED JUL 23 2014

NOTE: "FAIR" INDICATES FEW OR NO CLOUDS BELOW 12,000 FEET WITH NO
      SIGNIFICANT WEATHER AND/OR OBSTRUCTIONS TO VISIBILITY.

OKZ001>007-009>012-014-015-017-231500-
NORTHWEST OKLAHOMA AND THE PANHANDLE

CITY           SKY/WX    TMP DP  RH WIND       PRES   REMARKS
GAGE           SUNNY     77  67  71 SW5       30.21S
ENID/WOODRING  SUNNY     81  79  94 S6        30.12S FOG
$$

OKZ016-021>023-033>039-044-045-231500-
SOUTHWEST OKLAHOMA

CITY           SKY/WX    TMP DP  RH WIND       PRES   REMARKS
LAWTON/REGL    SUNNY     80  71  74 CALM      30.16R
LAWTON/FT SILL SUNNY     82  71  70 SW3       30.15R
FREDERICK      SUNNY     82  72  71 S3        30.13R
CLINTON        SUNNY     83  68  60 SW5       30.22R
HOBART         SUNNY     79  71  76 CALM      30.19R
ALTUS AFB      SUNNY     80  74  83 VRB2      30.17R
$$

OKZ018>020-024>031-231500-
CENTRAL OKLAHOMA

CITY           SKY/WX    TMP DP  RH WIND       PRES   REMARKS
OKLAHOMA CITY  MOSUNNY   80  72  76 SW6       30.15S
OKC/WILEY POST SUNNY     82  73  74 SW9       30.15R HAZE
OKC/TINKER AFB SUNNY     80  72  75 SW10      30.15S
STILLWATER     SUNNY     82  75  79 SW9       30.12S
$$

OKZ008-013-054>072-231500-
NORTHEAST OKLAHOMA

CITY           SKY/WX    TMP DP  RH WIND       PRES   REMARKS
TULSA          SUNNY     83  75  77 NW6       30.10S HX  90
TULSA/JONES    SUNNY     83  76  79 VRB3      30.11S HX  91
PONCA CITY     SUNNY     82  75  79 CALM      30.12S HAZE
BARTLESVILLE   SUNNY     85  76  74 SW5       30.11F HX  94
MUSKOGEE       PTSUNNY   81  76  84 W7        30.12S
$$

OKZ032-040>043-046>053-073>077-231500-
SOUTH CENTRAL/SOUTHEAST OKLAHOMA

CITY           SKY/WX    TMP DP  RH WIND       PRES   REMARKS
ARDMORE/DWNTWN SUNNY     79  70  73 CALM      30.14R
MCALESTER      SUNNY     80  73  79 SW7       30.13S
$$



USA.gov is the U.S. government's official web portal to all federal, state and local government web resources and services.